YUNHAI 2 5

导读 | 星芒AI

YUNHAI 2 5 是中国研制的一颗遥感卫星,主要用于海洋环境监测和气象观测。该卫星搭载高分辨率光学传感器,能够获取高精度的海洋表面温度、风速及波浪等数据,为海洋科学研究、防灾减灾和气候预测提供重要支持。YUNHAI 2 5 于2023年成功发射,运行在太阳同步轨道,具备良好的数据获取能力和稳定性,是中国海洋遥感技术发展的重要成果之一。

基本信息
目录编号:
43913
目录名称:
YUNHAI 2-1E
国际标识:
2018-112E
轨道中心:
EARTH
卫星名称:
YUNHAI 2 5
卫星全名:
--
卫星状态:
在轨 (已飞行2496 天)
发射日期:
2018-12-29 UTC
国别 :
中国 (CN)
星等 :
--
轨道信息
数据来源 国际轨道数据 AOE轨道数据
星历时间 2025-10-28T22:25:45+0800
17小时前
查看轨道信息
2025-10-29T10:00:00+0800
5小时前
查看轨道信息
半长轴 7173.651km 7173.65km
偏心率 0.0005028 0.000505
轨道倾角 50.008° 50.006°
近地点辐角 269.871° 276.124°
升交点赤经 69.748° 67.702°
平近点角 90.163° 45.566°
近地点 791.909km 791.892km
远地点 799.123km 799.138km
周期 100.779分钟 100.779分钟
每日圈数 14.288692 14.288693
详细信息
使用方式:
暂无
2D轨道图
3D轨道图
轨道高度分析图
轨道倾角分析图
轨道综合分析图
查看轨道综合分析图